Location: Lancaster
(34.6980°N, 118.1360°W)
Time: 07:00:29
(UTC-07:00)

EO-79 - Visible Passes

Search period start: 23 July 2018 00:00
Search period end: 02 August 2018 00:00
Orbit: 592 x 611 km, 97.9° (Epoch: 22 July)

Date Brightness Start Highest point End Pass type
(mag) Time Alt. Az. Time Alt. Az. Time Alt. Az.
23 Jul ? 00:57:57 10° NNE 00:58:58 17° NNE 00:58:58 17° NNE visible
24 Jul ? 01:09:35 10° N 01:10:42 18° N 01:10:42 18° N visible
25 Jul ? 01:21:17 10° N 01:22:25 18° N 01:22:25 18° N visible
26 Jul ? 01:33:05 10° N 01:34:08 17° N 01:34:08 17° N visible
27 Jul ? 01:44:57 10° NNW 01:45:52 15° NNW 01:45:52 15° NNW visible
28 Jul ? 01:56:56 10° NNW 01:57:35 13° NNW 01:57:35 13° NNW visible
29 Jul ? 00:32:26 10° NNE 00:32:31 10° NNE 00:32:31 10° NNE visible
29 Jul ? 02:09:05 10° NNW 02:09:18 11° NNW 02:09:18 11° NNW visible
30 Jul ? 00:43:52 10° NNE 00:44:14 12° NNE 00:44:14 12° NNE visible
31 Jul ? 00:55:25 10° NNE 00:55:56 13° NNE 00:55:56 13° NNE visible
01 Aug ? 01:07:02 10° N 01:07:39 14° N 01:07:39 14° N visible
